CAPE
0 0 28 15 21 159 205 271 171 55 0 0 81 170 409 861 1027 1199 1299 1184 821 684 697 846 1058 1134 1211 1486 1315 1635 753 1019 1255 1339 1323 1374 1470 1555 1726 1959 2759 2649 2490 2509
0 0 0 7 3 28 121 254 199 81 15 0 0 48 228 732 917 910 1002 1144 1187 991 778 845 989 1110 1245 1543 1668 1726 1806 1275 1743 1427 1474 1538 1678 1722 1645 1888 2620 2713 2525 2377
0 0 0 0 1 1 139 206 241 77 4 4 6 60 463 463 818 923 865 878 926 1054 853 758 939 1070 1151 1330 1678 1801 2199 2098 1987 1709 1854 2090 2160 2421 2245 1976 2116 2499 2112 1833
0 0 0 0 0 0 94 136 77 112 0 20 0 1 38 387 640 801 929 897 855 892 939 753 576 768 881 1104 1382 1713 2044 2412 2489 2390 2489 2646 1966 1761 1670 1686 1439 2259 1918 2184
0 0 0 0 0 1 21 22 102 79 0 0 0 0 3 0 0 19 878 663 797 874 951 996 879 724 621 779 1078 1387 1810 2328 2517 2572 3179 2376 2387 1674 1764 1746 2031 2574 2424 2651
0 0 0 0 0 0 1 17 99 51 0 0 1 0 0 13 0 0 109 164 578 897 917 1019 1056 1050 964 910 1119 1340 1826 2413 2558 2543 2671 2629 2385 2185 1714 1968 2875 3837 3747 3209
0 0 0 0 0 0 0 0 0 0 0 5 0 0 0 0 0 11 323 483 670 981 1006 1010 1141 1158 1152 1208 1227 1335 1859 2510 2642 2613 2512 2591 2722 2792 2571 2816 2907 3529 3449 3215
0 0 0 0 0 0 0 0 0 0 21 38 0 0 0 0 0 432 716 858 893 1154 1140 1056 1183 1289 1249 1374 1391 1471 1789 2478 2607 2609 2668 2860 2886 2458 2334 2190 1717 2776 2152 1700
0 0 0 0 0 0 0 0 0 0 0 0 0 0 0 120 462 768 847 1213 1316 1404 1344 1187 1114 1249 1305 1439 1603 1635 1855 2420 2597 2460 2816 2860 2878 2800 2208 2233 2382 1636 1796 1724
0 0 0 0 0 0 0 0 0 0 0 0 0 0 13 84 460 491 834 892 1112 1430 1511 1435 1420 1282 1275 1338 1459 1661 1830 2328 2352 2225 2539 2606 2662 2680 2455 2456 2794 2671 2409 1968
0 0 0 0 0 0 0 0 0 0 0 0 0 4 0 369 488 521 578 721 834 722 792 829 902 1174 1218 1321 1400 1577 1698 1920 2145 2117 2335 2426 2470 2553 2509 2368 2739 2768 2291 2146
0 0 0 0 0 0 0 0 0 0 0 0 0 4 324 622 460 451 591 553 569 576 590 856 932 1118 1109 1213 1428 1549 1667 1735 1897 1947 2335 2280 2427 2303 2218 2242 2603 2610 2158 1927
0 0 0 0 0 0 0 0 0 0 0 0 0 20 566 788 1318 1556 1237 992 858 804 872 880 999 1074 1180 1296 1736 1768 1769 1802 1788 1937 2152 2093 2412 2383 2195 2494 2519 2501 2175 1803
0 0 23 54 26 19 0 0 0 0 7 5 0 31 935 1170 1715 1873 1983 1962 1915 1519 1152 1126 1094 1171 1388 1569 2172 2244 2233 2029 2149 2227 2168 2710 2567 2449 2534 2650 2646 2438 2096 1848
0 1 4 12 11 0 10 0 0 0 0 3 13 10 1242 1760 1984 2140 2226 2331 2714 2868 2815 2815 2480 2021 1575 1715 2177 2418 2636 3414 3187 2718 2700 2491 2609 2139 2526 2543 2536 2432 2215 1575
0 27 58 61 40 50 91 6 0 0 0 151 105 643 1483 2042 1848 1631 1545 1703 1855 1862 2065 2776 3298 3474 2582 1680 2118 2529 2684 3187 3044 3163 3189 3272 3741 2771 2469 2582 2498 2334 1802 1353
0 33 46 111 26 8 118 194 431 508 620 419 225 1500 1811 1895 1637 1514 1394 1233 1212 1108 910 938 1719 2440 3300 1708 1975 2450 2823 3081 3250 3554 2859 3332 3558 2939 2784 2595 2511 2138 1405 1057
38 38 39 211 116 36 179 526 431 373 669 579 883 1376 1558 1730 1503 1023 772 957 1013 1057 1172 1192 801 1290 2609 2859 1994 2507 2913 2987 3276 3043 2490 2907 3148 3013 2922 2772 2455 1906 1273 1138
26 39 64 76 82 74 32 346 320 220 107 614 562 1264 1248 1209 1280 1527 673 595 724 846 961 1028 1006 1037 2652 3326 3348 2963 3105 3033 3004 2786 2679 2504 2539 2753 2457 2387 2004 1575 1181 1161
2 51 145 107 68 80 52 153 502 366 69 535 893 825 677 1193 807 967 543 680 764 791 1178 1361 1502 1547 1476 3163 3546 3770 3634 3480 3333 3252 3392 3076 2906 2418 2309 2032 1888 1722 1131 1016
115 155 106 176 130 130 86 326 432 166 351 768 933 993 812 655 582 516 663 787 918 1069 945 1482 1872 2459 2440 3614 3727 3880 3949 3968 3723 3650 3736 4145 3521 2851 2452 1318 1071 806 421 855
157 196 156 159 190 186 42 295 222 721 1019 1002 1364 931 597 478 460 538 656 835 916 948 850 1481 2114 2529 2731 3753 3954 4108 4124 4095 4153 3930 3803 3208 2880 2222 1456 1235 932 395 286 249
0 7 278 206 459 547 243 552 420 360 899 1170 1232 803 527 318 290 313 351 447 454 569 796 1421 2269 2115 2128 2687 3291 3482 3833 4269 3968 3949 3028 2167 2328 2161 1615 1272 705 357 111 109
33 0 72 204 262 469 300 282 174 330 310 547 577 482 334 258 153 123 83 82 258 344 427 816 1824 2154 2259 2393 2707 2968 3458 3606 3526 3086 2472 2037 2004 1588 1291 1041 769 252 127 25
0 0 39 116 142 339 301 297 261 129 190 320 222 202 153 102 113 128 110 177 289 472 519 859 1530 2345 2676 2420 2666 2713 2828 2730 2495 2294 2383 2340 1801 1386 1091 982 445 163 54 46
0 0 0 14 10 68 212 357 237 403 283 175 279 401 427 272 169 140 126 202 369 588 860 1039 1177 1882 2323 2385 2802 2363 2217 2428 1922 1813 2046 1845 1632 1223 923 764 320 119 71 44
CIN
0 0 -178 -143 -169 -61 -2 0 -15 -70 -10 0 -28 -19 -17 -81 -79 -59 -55 -87 -87 -100 -96 -72 -41 -18 -16 -11 -22 -28 -57 -40 -37 -31 -14 -6 0 0 0 0 -3 -6 0 0
0 0 0 -158 -200 -140 -53 0 -6 -44 -161 0 0 -38 -18 -38 -72 -76 -73 -79 -80 -73 -93 -90 -73 -45 -25 -20 -26 -30 -37 -54 -42 -20 -15 -2 0 0 0 0 0 -3 -2 -6
0 0 0 0 -103 -47 -43 -3 -2 -39 -165 -95 -73 -23 -19 -37 -55 -67 -79 -84 -77 -75 -85 -67 -66 -63 -38 -31 -35 -36 -41 -42 -48 -25 -22 -21 -10 -5 0 0 0 -1 -16 -14
0 0 0 0 -13 0 -54 -13 -56 -49 -1 -58 -17 0 0 -6 -33 -74 -73 -82 -77 -79 -75 -74 -62 -58 -57 -41 -28 -45 -53 -49 -40 -34 -5 -10 -2 0 0 0 0 0 -19 -4
0 0 0 0 0 -102 -116 -119 -59 -57 0 0 0 0 0 0 0 -1 -44 -65 -90 -81 -77 -63 -43 -39 -58 -48 -31 -39 -61 -65 -54 -44 -12 -18 -13 0 0 0 0 -1 -6 0
0 0 0 0 0 0 -111 -155 -39 -36 0 -4 0 0 0 0 0 0 -23 -84 -88 -93 -93 -60 -50 -29 -58 -56 -47 -32 -55 -88 -82 -66 -57 -30 -11 -2 0 0 0 -1 -1 0
0 0 0 0 0 0 0 0 0 0 0 -47 0 0 0 0 0 -42 -69 -70 -90 -92 -81 -63 -50 -42 -56 -63 -70 -55 -67 -90 -98 -76 -63 -45 -33 -11 -3 -2 0 -2 -5 0
0 0 0 0 0 0 0 0 0 0 -14 -1 0 0 0 0 0 -43 -79 -86 -113 -88 -58 -54 -45 -36 -41 -44 -68 -87 -74 -94 -95 -87 -67 -53 -39 -13 -6 -2 -11 -2 -2 0
0 0 0 0 0 0 0 0 0 0 0 0 0 0 0 -20 -10 -36 -60 -56 -67 -66 -74 -61 -45 -47 -45 -50 -55 -84 -87 -93 -80 -78 -79 -64 -49 -23 -19 -14 -8 -5 -3 0
0 0 0 0 0 0 0 0 0 0 0 0 0 0 0 -13 -29 -33 -36 -42 -53 -56 -62 -53 -51 -51 -42 -36 -58 -68 -81 -96 -78 -58 -71 -58 -55 -45 -31 -16 -2 -3 -1 -8
0 0 0 0 0 0 0 0 0 0 0 0 0 0 0 -24 -56 -43 -56 -55 -45 -52 -43 -58 -77 -92 -74 -63 -42 -68 -78 -90 -70 -57 -68 -58 -64 -67 -57 -32 -8 -3 -22 -10
0 -2 -11 0 0 0 0 0 0 0 0 0 0 0 -27 -33 -72 -76 -80 -97 -83 -103 -71 -69 -82 -107 -115 -118 -101 -103 -108 -88 -100 -82 -92 -89 -81 -80 -48 -50 -38 -11 -12 -7
0 0 0 0 0 0 0 0 0 0 0 0 0 -1 -34 -28 -56 -71 -76 -70 -100 -90 -76 -76 -104 -138 -137 -142 -155 -137 -136 -131 -116 -116 -118 -127 -111 -105 -66 -32 -40 -21 -18 -12
0 0 -1 0 -2 -7 0 0 0 0 0 0 0 -6 -6 -37 -43 -52 -73 -72 -62 -67 -89 -82 -91 -108 -147 -154 -172 -174 -187 -172 -179 -156 -147 -119 -142 -124 -86 -36 -20 -23 -43 -12
0 0 -6 -17 -15 0 -14 0 0 0 0 0 -1 -2 -14 -58 -61 -67 -81 -77 -55 -37 -45 -63 -59 -117 -182 -216 -226 -214 -200 -173 -186 -179 -166 -126 -116 -147 -74 -32 -17 -16 -34 -36
0 -4 -20 -25 -21 -8 -3 -12 0 0 0 -1 -1 0 -45 -76 -76 -79 -87 -81 -75 -77 -71 -70 -65 -63 -118 -192 -232 -235 -225 -200 -206 -201 -188 -144 -26 -116 -60 -30 -26 -22 -55 -62
0 -12 -8 -7 -28 -47 0 0 -2 -4 -10 -2 0 -8 -30 -34 -49 -71 -89 -88 -92 -109 -143 -167 -104 -69 -75 -190 -220 -223 -216 -212 -195 -176 -312 -259 -62 -83 -60 -23 -16 -33 -81 -88
-19 -18 -14 -1 -7 -21 -8 -12 -13 -6 -7 -5 -12 -14 -17 -32 -46 -80 -97 -93 -97 -115 -125 -143 -157 -95 -74 -86 -176 -202 -202 -179 -163 -194 -237 -169 -128 -98 -45 -20 -20 -39 -83 -79
-19 -5 -3 -13 -5 -15 -26 -8 -2 -1 -6 -4 -1 -13 -19 -39 -27 -28 -74 -101 -118 -122 -126 -129 -113 -104 -101 -103 -133 -167 -163 -171 -190 -218 -217 -233 -177 -78 -105 -20 -9 -28 -54 -39
-4 -14 0 0 -9 -5 0 -3 -8 -4 0 -5 -4 -7 -11 -13 0 -2 -63 -89 -106 -121 -126 -116 -97 -101 -104 -40 -63 -63 -72 -84 -78 -80 -68 -68 -70 -73 -13 -2 -1 -2 -16 -19
-11 -6 -1 0 0 0 -16 -11 -16 0 -4 -12 -8 -6 -24 -9 -27 -61 -87 -76 -82 -92 -104 -90 -62 -30 -45 -17 -29 -31 -27 -30 -6 -7 0 0 -3 -9 -17 -110 -142 -86 -29 -2
-15 -2 0 -1 0 0 -53 -26 -3 -34 -72 -38 -30 -50 -40 -45 -71 -83 -78 -61 -61 -69 -91 -54 -22 -10 -13 -5 -7 -2 -7 -12 -11 -12 -17 -18 -7 -32 -136 -131 -142 -77 -235 -137
-2 -30 -4 -6 -6 -95 -59 -45 -84 -64 -39 -55 -46 -56 -49 -47 -63 -70 -70 -78 -92 -92 -57 -12 -7 -5 -6 -16 -12 -1 0 0 -2 -3 -53 -125 -79 -49 -101 -123 -108 -71 -167 -136
-102 0 -55 -27 -14 -31 -48 -74 -103 -94 -63 -63 -43 -63 -73 -53 -83 -103 -136 -155 -122 -104 -77 -11 -6 -4 -8 -21 -32 -14 0 -1 0 -3 -39 -72 -95 -82 -101 -82 -60 -67 -83 -63
0 0 -72 -14 -12 -16 -46 -62 -75 -98 -91 -59 -55 -49 -56 -70 -68 -78 -102 -103 -79 -43 -32 -24 -16 -12 -16 -29 -37 -24 -14 -15 -10 -13 -6 -9 -28 -47 -60 -48 -58 -71 -38 -40
0 0 0 0 -23 -39 -23 -55 -71 -49 -64 -74 -53 -41 -41 -40 -55 -90 -103 -88 -42 -18 -19 -22 -18 -17 -17 -30 -33 -64 -50 -12 -26 -13 -1 -3 -5 -17 -36 -38 -67 -59 -60 -36
Wind_Speed
nan nan nan nan nan 25 7 7 2 nan nan nan nan 4 2 9 18 23 27 29 32 35 24 25 24 23 21 18 14 9 6 5 3 2 1 3 4 5 4 1 4 5 10 12
nan nan nan nan nan nan 6 1 6 nan nan nan nan nan 5 10 16 18 23 24 28 30 29 22 23 21 21 19 17 15 8 6 2 2 2 4 3 2 0 2 2 5 13 14
nan nan nan nan nan nan 4 2 10 nan nan nan nan nan 15 10 5 3 16 19 22 27 29 27 21 22 20 17 17 17 17 15 11 9 4 3 2 1 3 3 5 10 14 15
nan nan nan nan nan nan nan 14 nan 7 nan nan nan nan nan 22 15 16 4 14 18 23 27 28 19 20 20 18 15 13 14 15 16 16 11 9 6 4 5 5 9 14 15 14
nan nan nan nan nan nan nan nan 12 nan nan nan nan nan nan nan nan nan 11 10 11 19 26 28 21 18 19 17 17 14 15 18 18 18 13 10 6 6 7 9 12 11 16 14
nan nan nan nan nan nan nan nan nan nan nan nan nan nan nan nan nan nan 10 2 5 14 20 25 22 14 13 13 13 13 15 18 21 21 17 12 11 9 10 12 13 14 15 16
nan nan nan nan nan nan nan nan nan nan nan nan nan nan nan nan nan nan 12 10 9 15 23 27 30 16 13 14 13 13 15 16 20 23 25 24 18 16 15 14 15 17 21 14
nan nan nan nan nan nan nan nan nan nan nan nan nan nan nan nan nan 17 16 15 13 19 27 30 29 26 19 17 14 15 17 17 21 25 29 26 21 13 10 12 14 17 22 23
nan nan nan nan nan nan nan nan nan nan nan nan nan nan nan 14 27 21 21 19 24 24 23 25 24 23 23 15 17 14 15 17 24 28 24 21 17 18 20 19 16 16 25 23
nan nan nan nan nan nan nan nan nan nan nan nan nan nan nan nan 25 24 21 18 19 24 24 20 13 14 20 15 14 16 12 16 21 24 21 19 19 20 20 19 13 15 21 31
nan nan nan nan nan nan nan nan nan nan nan nan nan nan nan 20 18 19 18 15 19 19 20 15 13 16 11 11 10 11 12 15 18 22 21 18 17 15 15 20 14 14 22 27
nan nan nan nan nan nan nan nan nan nan nan nan nan nan 23 23 20 18 15 15 13 8 11 17 16 21 16 13 7 11 12 13 16 20 21 19 17 10 11 18 18 19 23 22
nan nan nan nan nan nan nan nan nan nan nan nan nan nan 20 24 24 17 15 11 15 11 14 16 21 22 18 17 16 15 15 16 14 19 19 15 14 13 19 15 15 22 23 23
nan nan nan nan nan nan nan nan nan nan nan nan nan nan 22 19 18 19 21 20 17 15 15 17 21 22 20 21 16 17 16 13 14 17 17 14 17 11 13 15 18 21 25 25
nan nan nan nan nan nan nan nan nan nan nan nan nan nan 12 18 22 26 25 28 26 23 22 19 19 22 23 15 16 15 11 8 12 16 10 10 11 9 15 15 20 22 25 26
nan nan nan nan nan nan nan nan nan nan nan 10 8 18 12 12 19 26 28 30 29 27 28 25 21 20 21 23 16 15 13 15 19 23 29 23 18 14 12 18 20 24 25 30
nan nan nan 14 nan nan 5 15 20 22 17 14 6 28 18 24 24 23 23 24 24 25 25 24 23 23 19 20 23 19 20 23 26 28 17 22 20 19 18 15 17 25 26 31
nan nan nan 16 10 nan 23 23 17 16 18 18 24 26 25 27 28 29 21 23 26 28 28 26 23 26 23 20 19 25 21 23 29 25 25 21 20 18 17 17 18 24 28 30
nan nan nan nan nan nan nan 11 11 12 11 23 25 29 29 29 29 25 22 24 25 27 27 26 23 26 28 25 22 21 25 29 27 31 29 30 29 26 28 27 24 26 28 29
nan nan 9 15 nan nan nan 25 13 14 nan 22 21 27 27 24 15 28 22 22 21 22 21 22 21 19 24 26 32 30 28 27 28 30 34 33 37 36 36 33 38 42 34 31
19 16 11 15 7 8 nan 18 14 13 15 23 20 23 25 22 25 27 21 20 19 17 16 18 22 27 23 23 23 26 30 31 37 35 38 38 45 48 51 53 53 52 56 45
19 19 18 12 17 12 nan 21 11 23 24 26 27 28 27 27 27 26 23 21 20 16 15 18 22 25 23 25 24 23 25 29 32 39 48 52 58 59 57 59 59 54 64 61
nan nan 24 22 28 27 20 23 21 18 25 28 30 30 28 28 26 25 24 23 21 18 18 17 18 18 22 24 25 24 23 26 31 34 51 58 59 59 54 56 56 56 59 59
nan nan nan 15 27 22 21 20 19 20 20 25 28 28 26 25 23 19 nan nan 19 21 21 20 18 16 19 24 23 23 26 25 31 42 43 45 46 49 56 57 51 58 60 nan
nan nan nan 15 25 21 24 20 21 21 19 21 23 22 21 21 20 19 18 17 16 17 19 22 20 17 18 23 25 26 27 29 31 36 41 41 43 47 53 56 56 53 nan nan
nan nan nan nan nan nan 25 26 23 20 19 18 19 19 18 17 17 17 17 17 17 15 16 19 20 19 21 25 28 28 28 31 34 35 34 36 39 39 44 52 54 60 nan nan
Wind_Direction
nan nan nan nan nan 212 198 184 243 nan nan nan nan 138 291 0 19 19 15 8 14 18 19 17 21 23 22 19 18 13 10 343 305 288 224 203 211 228 254 316 280 359 10 360
nan nan nan nan nan nan 275 133 341 nan nan nan nan nan 239 342 27 27 26 13 3 11 11 6 9 11 15 11 16 22 8 349 340 269 186 193 227 257 35 312 360 29 351 342
nan nan nan nan nan nan 271 96 254 nan nan nan nan nan 257 275 328 0 31 14 3 7 358 357 0 6 9 7 6 10 21 11 358 11 337 309 271 271 358 9 357 332 340 333
nan nan nan nan nan nan nan 300 nan 247 nan nan nan nan nan 284 294 330 354 25 11 358 359 356 353 3 9 11 3 3 10 16 8 8 8 20 8 353 333 322 327 322 332 328
nan nan nan nan nan nan nan nan 231 nan nan nan nan nan nan nan nan nan 307 335 6 357 1 359 355 356 8 6 0 0 15 22 16 3 6 341 352 327 318 322 314 329 320 315
nan nan nan nan nan nan nan nan nan nan nan nan nan nan nan nan nan nan 288 357 50 347 352 346 359 339 345 350 357 358 6 25 20 13 6 352 339 337 313 308 306 302 292 300
nan nan nan nan nan nan nan nan nan nan nan nan nan nan nan nan nan nan 203 245 309 333 334 338 342 329 316 326 339 349 349 8 18 17 18 18 4 342 333 321 308 297 322 304
nan nan nan nan nan nan nan nan nan nan nan nan nan nan nan nan nan 214 230 257 291 322 328 343 333 330 315 312 325 338 340 356 7 16 18 20 23 17 10 348 342 327 331 330
nan nan nan nan nan nan nan nan nan nan nan nan nan nan nan 214 222 230 239 270 287 310 331 341 338 335 344 320 309 314 334 357 5 14 17 19 21 15 2 360 345 351 358 339
nan nan nan nan nan nan nan nan nan nan nan nan nan nan nan nan 220 232 255 274 288 305 314 334 322 342 340 328 292 303 328 350 358 6 19 20 17 9 353 359 345 19 7 12
nan nan nan nan nan nan nan nan nan nan nan nan nan nan nan 211 222 237 249 268 294 316 324 325 331 339 341 319 277 293 319 342 348 7 11 6 355 3 17 19 22 13 8 12
nan nan nan nan nan nan nan nan nan nan nan nan nan nan 227 226 229 236 247 281 281 316 346 324 315 322 333 315 308 296 304 332 350 357 0 3 7 1 343 5 358 354 349 1
nan nan nan nan nan nan nan nan nan nan nan nan nan nan 227 240 248 251 243 263 279 315 324 324 322 326 316 330 323 309 316 333 347 350 3 9 17 4 355 355 350 343 343 340
nan nan nan nan nan nan nan nan nan nan nan nan nan nan 241 238 242 252 249 258 262 278 291 297 315 323 335 333 342 331 315 332 339 335 359 1 1 349 332 329 335 334 331 333
nan nan nan nan nan nan nan nan nan nan nan nan nan nan 251 243 244 245 252 256 250 258 262 270 283 303 320 334 341 339 319 312 288 304 318 323 337 348 313 311 317 317 317 317
nan nan nan nan nan nan nan nan nan nan nan 284 286 287 269 262 260 257 257 257 256 249 249 258 255 273 291 319 335 337 328 319 308 313 324 321 307 329 336 311 311 308 314 313
nan nan nan 266 nan nan 316 266 234 239 242 226 289 253 283 281 279 281 273 273 258 240 242 244 235 249 257 289 310 315 313 315 317 326 352 315 326 320 310 313 307 306 313 314
nan nan nan 247 302 nan 238 245 223 221 241 249 259 268 270 277 286 291 276 260 251 241 238 242 246 239 239 253 278 291 296 309 315 320 313 315 317 308 295 290 297 294 295 309
nan nan nan nan nan nan nan 271 235 227 268 256 263 272 278 285 294 296 264 251 246 248 248 247 253 249 250 247 252 265 280 294 301 312 310 311 310 311 297 292 288 277 282 284
nan nan 238 280 nan nan nan 272 261 250 nan 293 273 281 285 291 302 270 254 242 240 242 243 244 249 262 255 261 265 266 270 278 288 292 299 300 298 294 292 291 287 280 266 265
258 251 265 285 270 241 nan 275 274 293 243 270 292 285 282 283 261 267 257 250 244 240 236 248 260 267 268 267 265 265 266 275 270 277 283 283 287 291 288 283 287 276 260 241
249 259 273 269 255 284 nan 277 290 245 255 269 275 277 277 277 282 277 267 257 249 243 243 249 252 263 275 283 280 275 275 268 273 271 268 271 276 276 277 282 276 282 289 289
nan nan 244 255 251 263 264 249 249 239 265 268 274 276 275 280 283 283 273 266 261 264 262 255 252 257 274 276 276 276 270 268 270 275 271 277 277 271 273 277 281 283 284 290
nan nan nan 255 256 253 264 275 259 258 256 273 278 284 287 287 286 281 nan nan 275 269 269 267 257 249 258 270 272 274 274 275 276 279 280 278 277 276 276 271 271 274 277 nan
nan nan nan 249 255 260 266 265 262 265 268 278 282 286 289 285 284 280 278 274 269 262 265 267 271 268 267 271 281 284 280 287 285 285 284 283 277 276 275 273 276 278 nan nan
nan nan nan nan nan nan 254 259 260 267 278 282 289 294 293 289 286 279 279 278 274 272 275 279 279 284 280 280 286 288 287 290 292 282 280 280 281 282 280 275 270 258 nan nan